Terminal Aerodrome Forecast
Issued by NWS Grand Rapids, MI

Home | Current Version | Previous Version | Text Only | Print | Product List | Glossary On
Versions: 1 2 3 4 5 6 7 8 9 10 11 12 13 14 15 16 17 18 19 20 21 22
670
FTUS43 KGRR 241741
TAFGRR
TAF
KGRR 241741Z 2418/2518 25014G23KT P6SM BKN035
     FM250100 25008KT P6SM SCT035
     FM251500 26014G23KT P6SM VCSH BKN035=

USA.gov is the U.S. government's official web portal to all federal, state and local government web resources and services.